Weather History for Sand Springs William R. Pogue, OK

Change the Weather History Date:

Saturday, March 15, 2014

  Actual Average (KTUL) Record (KTUL)
Temperature  
Mean Temperature 60 °F 51 °F  
Max Temperature 70 °F 62 °F 84 °F (1921)
Min Temperature 50 °F 40 °F 21 °F (1962)
Degree Days  
Heating Degree Days 5 14  
Month to date heating degree days 246  
Since 1 July heating degree days 3157  
Cooling Degree Days 0 0  
Month to date cooling degree days 0  
Year to date cooling degree days 1  
Growing Degree Days 10 (Base 50)    
Moisture  
Dew Point 46 °F    
Average Humidity 64    
Maximum Humidity 87    
Minimum Humidity 29    
Precipitation  
Precipitation 0.00 in 0.11 in 2.64 in (1944)
Month to date precipitation 1.52  
Year to date precipitation 5.03  
Sea Level Pressure  
Sea Level Pressure 29.88 in    
Wind  
Wind Speed 4 mph (SE)    
Max Wind Speed 13 mph    
Max Gust Speed 18 mph    
Visibility 10 miles    
Events Rain , Thunderstorm    
T = Trace of Precipitation, MM = Missing Value Source: NWS Daily Summary

Daily Weather History Graph

Daily Weather History Graph

Search for Another Location

Airport:

Trip Planner

Search our weather history database for the weather conditions in past years. The results will help you decide how hot, cold, wet, or windy it might be!

Date:

Astronomy

Mar. 15, 2014 Rise Set
Actual Time 7:35 AM CDT 7:32 PM CDT
Civil Twilight 7:09 AM CDT 7:57 PM CDT
Nautical Twilight 6:40 AM CDT 8:27 PM CDT
Astronomical Twilight 6:09 AM CDT 8:57 PM CDT
Moon 6:52 PM CDT (3/15) 6:46 AM CDT (3/15)
Length of Visible Light 12h 47m
Length of Day
11h 56m
Waxing Gibbous, 99% of the Moon is Illuminated
Mar 15
Waxing Gibbous
Mar 16
Full
Mar 23
Last Quarter
Mar 30
New
Apr 7
First Quarter

Hourly Weather History & Observations

Time (CDT) Temp. Dew Point Humidity Pressure Visibility Wind Dir Wind Speed Gust Speed Precip Events Conditions
12:15 AM 54.9 °F 24.6 °F 31% 29.99 in 10.0 mi Calm Calm - N/A   Clear
12:35 AM 56.3 °F 24.1 °F 29% 29.99 in 10.0 mi Calm Calm - N/A   Clear
12:55 AM 53.6 °F 25.9 °F 34% 29.98 in 10.0 mi Calm Calm - N/A   Clear
1:15 AM 54.7 °F 25.0 °F 32% 29.98 in 10.0 mi Calm Calm - N/A   Clear
1:35 AM 54.5 °F 25.2 °F 32% 29.98 in 10.0 mi SE 3.5 mph - N/A   Clear
1:55 AM 55.0 °F 26.2 °F 33% 29.97 in 10.0 mi SE 5.8 mph - N/A   Clear
2:15 AM 54.7 °F 27.5 °F 35% 29.97 in 10.0 mi Calm Calm - N/A   Clear
2:35 AM 53.6 °F 29.7 °F 40% 29.98 in 10.0 mi SE 4.6 mph - N/A   Clear
2:55 AM 55.8 °F 33.3 °F 43% 29.97 in 10.0 mi Calm Calm - N/A   Clear
3:15 AM 55.9 °F 36.0 °F 47% 29.97 in 10.0 mi Calm Calm - N/A   Clear
3:35 AM 56.1 °F 36.7 °F 48% 29.97 in 10.0 mi SE 3.5 mph - N/A   Clear
3:55 AM 55.6 °F 39.4 °F 55% 29.96 in 10.0 mi Calm Calm - N/A   Clear
4:15 AM 54.3 °F 39.7 °F 58% 29.95 in 10.0 mi Calm Calm - N/A   Clear
4:35 AM 53.6 °F 39.7 °F 59% 29.95 in 10.0 mi SE 3.5 mph - N/A   Clear
4:55 AM 52.7 °F 39.6 °F 61% 29.95 in 10.0 mi SE 4.6 mph - N/A   Clear
5:15 AM 51.3 °F 41.9 °F 70% 29.95 in 10.0 mi SE 4.6 mph - N/A   Clear
5:35 AM 51.6 °F 42.1 °F 70% 29.95 in 7.0 mi ESE 4.6 mph - N/A   Clear
5:55 AM 51.8 °F 42.4 °F 70% 29.95 in 10.0 mi ESE 3.5 mph - N/A   Clear
6:15 AM 50.4 °F 42.4 °F 74% 29.94 in 10.0 mi SE 5.8 mph - N/A   Clear
6:35 AM 51.4 °F 44.6 °F 77% 29.94 in 7.0 mi SE 4.6 mph - N/A   Clear
6:55 AM 50.7 °F 44.2 °F 78% 29.93 in 7.0 mi SE 5.8 mph - N/A   Clear
7:15 AM 51.6 °F 45.5 °F 80% 29.93 in 10.0 mi SE 8.1 mph - N/A   Clear
7:35 AM 51.1 °F 45.9 °F 82% 29.93 in 10.0 mi ESE 5.8 mph - N/A   Clear
7:55 AM 51.8 °F 46.4 °F 82% 29.93 in 10.0 mi ESE 6.9 mph - N/A   Clear
8:15 AM 52.3 °F 46.9 °F 82% 29.93 in 10.0 mi ESE 6.9 mph - N/A   Clear
8:35 AM 53.2 °F 47.3 °F 80% 29.94 in 10.0 mi SE 6.9 mph - N/A   Clear
8:55 AM 54.7 °F 47.8 °F 78% 29.93 in 10.0 mi SE 8.1 mph - N/A   Clear
9:15 AM 56.3 °F 48.2 °F 74% 29.94 in 10.0 mi SE 9.2 mph - N/A   Clear
9:35 AM 57.7 °F 48.7 °F 72% 29.94 in 10.0 mi SE 11.5 mph - N/A   Clear
9:55 AM 59.4 °F 48.9 °F 68% 29.94 in 10.0 mi SE 9.2 mph - N/A   Clear
10:15 AM 59.7 °F 49.3 °F 68% 29.93 in 10.0 mi SE 11.5 mph 16.1 mph N/A   Scattered Clouds
10:35 AM 61.3 °F 50.0 °F 66% 29.92 in 10.0 mi SE 8.1 mph - N/A   Mostly Cloudy
10:55 AM 64.2 °F 51.4 °F 63% 29.91 in 10.0 mi SSE 9.2 mph - N/A   Scattered Clouds
11:15 AM 66.0 °F 52.7 °F 62% 29.90 in 10.0 mi SE 8.1 mph - N/A   Clear
11:35 AM 67.8 °F 53.2 °F 60% 29.89 in 10.0 mi SE 12.7 mph - N/A   Clear
11:55 AM 68.5 °F 54.0 °F 60% 29.88 in 10.0 mi SSE 11.5 mph - N/A   Clear
12:15 PM 70.3 °F 54.1 °F 56% 29.88 in 10.0 mi SSE 10.4 mph - N/A   Clear
12:35 PM 70.3 °F 54.0 °F 56% 29.88 in 10.0 mi SSE 12.7 mph - N/A   Clear
12:55 PM 68.4 °F 53.6 °F 59% 29.88 in 10.0 mi South 12.7 mph 18.4 mph N/A   Mostly Cloudy
1:15 PM 67.3 °F 54.3 °F 63% 29.87 in 10.0 mi South 9.2 mph - N/A   Overcast
1:35 PM 67.6 °F 54.3 °F 62% 29.87 in 10.0 mi South 12.7 mph - N/A   Overcast
1:55 PM 66.4 °F 54.7 °F 66% 29.86 in 10.0 mi South 10.4 mph 17.3 mph N/A Thunderstorm Thunderstorm
2:15 PM 66.2 °F 54.3 °F 65% 29.85 in 10.0 mi SSE 10.4 mph - N/A   Mostly Cloudy
2:35 PM 66.6 °F 54.7 °F 66% 29.84 in 10.0 mi SE 12.7 mph 17.3 mph N/A   Scattered Clouds
2:55 PM 66.6 °F 53.8 °F 63% 29.82 in 10.0 mi SSE 6.9 mph 18.4 mph N/A   Scattered Clouds
3:15 PM 66.4 °F 53.6 °F 63% 29.81 in 10.0 mi SSE 10.4 mph - N/A   Scattered Clouds
3:35 PM 65.7 °F 54.0 °F 66% 29.80 in 10.0 mi SSE 10.4 mph - N/A   Scattered Clouds
3:55 PM 65.3 °F 53.8 °F 66% 29.80 in 10.0 mi SSE 6.9 mph - N/A   Clear
4:15 PM 64.6 °F 54.0 °F 68% 29.80 in 10.0 mi South 6.9 mph - N/A   Scattered Clouds
4:35 PM 64.2 °F 53.6 °F 68% 29.79 in 10.0 mi SSE 4.6 mph - N/A   Clear
4:55 PM 63.5 °F 53.6 °F 70% 29.76 in 10.0 mi SE 9.2 mph - N/A   Clear
5:15 PM 63.5 °F 53.4 °F 70% 29.76 in 10.0 mi SSE 4.6 mph - N/A   Scattered Clouds
5:35 PM 63.5 °F 52.7 °F 68% 29.77 in 10.0 mi Calm Calm - N/A   Clear
5:55 PM 63.1 °F 52.2 °F 67% 29.77 in 10.0 mi Calm Calm - N/A   Scattered Clouds
6:15 PM 63.1 °F 52.0 °F 67% 29.78 in 10.0 mi SSE 3.5 mph - N/A   Scattered Clouds
6:35 PM 62.8 °F 50.7 °F 65% 29.77 in 10.0 mi ESE 9.2 mph - N/A   Scattered Clouds
6:55 PM 62.6 °F 49.1 °F 61% 29.78 in 10.0 mi Calm Calm - N/A   Scattered Clouds
7:15 PM 62.2 °F 49.1 °F 62% 29.79 in 10.0 mi Calm Calm - N/A   Mostly Cloudy
7:35 PM 61.2 °F 49.1 °F 65% 29.79 in 10.0 mi WNW 3.5 mph - N/A   Mostly Cloudy
7:55 PM 60.8 °F 49.1 °F 65% 29.79 in 10.0 mi Calm Calm - N/A   Mostly Cloudy
8:15 PM 60.3 °F 49.1 °F 67% 29.78 in 10.0 mi Calm Calm - N/A   Overcast
8:35 PM 59.5 °F 49.3 °F 69% 29.79 in 10.0 mi South 3.5 mph - N/A   Overcast
8:55 PM 59.9 °F 49.1 °F 67% 29.79 in 10.0 mi Calm Calm - N/A   Mostly Cloudy
9:15 PM 59.9 °F 49.1 °F 67% 29.80 in 10.0 mi SSW 3.5 mph - N/A   Mostly Cloudy
9:35 PM 59.4 °F 49.5 °F 70% 29.82 in 10.0 mi Calm Calm - N/A   Overcast
9:55 PM 59.0 °F 49.5 °F 71% 29.82 in 10.0 mi Calm Calm - N/A Rain Light Rain
10:15 PM 58.5 °F 50.0 °F 73% 29.83 in 10.0 mi Calm Calm - N/A   Drizzle
10:35 PM 57.2 °F 51.4 °F 81% 29.83 in 10.0 mi Calm Calm - N/A   Drizzle
10:55 PM 56.5 °F 52.0 °F 85% 29.82 in 10.0 mi Calm Calm - N/A   Drizzle
11:15 PM 56.3 °F 51.8 °F 85% 29.80 in 10.0 mi Calm Calm - N/A   Overcast
11:35 PM 55.9 °F 52.0 °F 87% 29.80 in 10.0 mi Calm Calm - N/A   Overcast
11:55 PM 56.1 °F 52.2 °F 87% 29.79 in 10.0 mi Calm Calm - N/A   Overcast